Left ArrowRight Arrow

Hourly Observations for May 26, 2018

Temp ( °F °C ) Dew Point ( °F °C ) Humidity (%) Winds ( mph kmh ) Pressure ( in mb ) Visibility ( mi km ) Precip ( " mm )
12:56 am 00:56 Clear 76 24.5 72 22.2 87 87 SSE 6 9 29.98 1015 10 16 0.00 0.00
1:56 am 01:56 Clear 76 24.3 72 22 87 87 SSE 7 11 29.95 1014 10 16 0.00 0.00
2:56 am 02:56 Clear 75 24 71 21.9 88 88 S 5 7 29.95 1014 10 16 0.00 0.00
3:56 am 03:56 Partly Cloudy 75 24.1 72 22.1 89 89 SSE 5 7 29.95 1014 10 16 0.00 0.00
4:56 am 04:56 Clear 75 23.8 71 21.8 89 89 Calm 29.95 1014 10 16 0.00 0.00
5:56 am 05:56 Clear 74 23.3 71 21.7 91 91 Calm 29.95 1014 10 16 0.00 0.00
6:56 am 06:56 Sunny 74 23.4 72 22 92 92 Calm 29.97 1015 10 16 0.00 0.00
7:56 am 07:56 Sunny 75 24 73 22.6 92 92 S 3 6 29.99 1016 10 16 0.00 0.00
8:41 am 08:41 Mostly Cloudy 77 25 73 23 89 89 SW 3 6 29.99 1016 10 16 0.00 0.00
8:56 am 08:56 Mostly Cloudy 78 25.4 74 23.4 89 89 SW 5 7 29.99 1016 10 16 0.00 0.00
9:11 am 09:11 Mostly Cloudy 79 26 75 24 89 89 SW 5 7 30.00 1016 10 16 0.00 0.00
9:44 am 09:44 Mostly Cloudy with Light Rain 81 27 75 24 84 84 S 8 13 30.00 1016 10 16 0.00 0.00
9:55 am 09:55 Mostly Cloudy 79 26 73 23 84 84 S 3 6 30.00 1016 10 16 0.00 0.00
9:56 am 09:56 Mostly Cloudy 79 26.3 74 23.1 83 83 S 3 6 30.00 1016 10 16 0.00 0.03
10:11 am 10:11 Partly Cloudy with Nearby Thunderstorms 79 26 73 23 84 84 SW 6 9 30.00 1016 10 16 0.00 0.00
10:20 am 10:20 Mostly Cloudy with Light Rain and Scattered Storms 79 26 73 23 84 84 S 6 9 30.00 1016 10 16 0.00 0.00
10:45 am 10:45 Mostly Cloudy with Heavy Rain 77 25 72 22 83 83 S 6 9 30.00 1016 1 2 0.00 0.00
10:56 am 10:56 Mostly Cloudy with Light Rain 77 25 71 21.9 83 83 Calm 30.00 1016 6 10 0.39 9.91
11:08 am 11:08 Partly Cloudy 79 26 73 23 84 84 SW 3 6 29.99 1016 10 16 0.00 0.00
11:23 am 11:23 Mostly Cloudy 79 26 73 23 84 84 S 6 9 29.99 1016 10 16 0.00 0.00
11:53 am 11:53 Mostly Cloudy 79 26 73 23 84 84 S 13 20 29.99 1016 10 16 0.00 0.00
11:56 am 11:56 Mostly Cloudy 79 26.3 73 22.9 82 82 S 12 19 29.99 1016 10 16 0.01 0.25
12:38 pm 12:38 Partly Cloudy with Light Rain 79 26 73 23 84 84 S 8 13 29.98 1015 10 16 0.00 0.00
12:51 pm 12:51 Mostly Cloudy 81 27 73 23 79 79 SSE 7 11 29.98 1015 10 16 0.00 0.00
12:56 pm 12:56 Mostly Cloudy 80 26.7 73 22.5 78 78 SSE 9 15 29.98 1015 10 16 0.00 0.03
1:56 pm 13:56 Mostly Cloudy 82 27.8 73 22.5 73 73 SSE 10 17 29.96 1015 10 16 0.00 0.00
2:56 pm 14:56 Partly Cloudy 82 27.8 73 22.5 73 73 SSE 10 17 29.95 1014 10 16 0.00 0.00
3:56 pm 15:56 Partly Cloudy 83 28.4 71 21.6 67 67 SSE 13 20 29.92 1013 10 16 0.00 0.00
4:56 pm 16:56 Mostly Sunny 82 27.8 70 21.3 68 68 SSE 14 22 29.92 1013 10 16 0.00 0.00
5:56 pm 17:56 Sunny 81 27.1 70 21.1 70 70 SSE 12 19 29.92 1013 10 16 0.00 0.00
6:56 pm 18:56 Sunny 80 26.4 69 20.7 71 71 SSE 12 19 29.92 1013 10 16 0.00 0.00
7:56 pm 19:56 Mostly Sunny 78 25.6 69 20.6 74 74 SSE 12 19 29.93 1014 10 16 0.00 0.00
8:56 pm 20:56 Mostly Clear 77 25.2 70 21.1 78 78 S 7 11 29.94 1014 10 16 0.00 0.00
9:56 pm 21:56 Clear 77 24.9 70 21.2 80 80 SSE 7 11 29.95 1014 10 16 0.00 0.00
10:56 pm 22:56 Clear 76 24.7 70 21.2 81 81 SSE 6 9 29.96 1015 10 16 0.00 0.00
11:56 pm 23:56 Clear 76 24.2 70 20.9 82 82 SE 5 7 29.95 1014 10 16 0.00 0.00

Powered by Vaisala Xweather